EW1033 Weather Reports


Display with metric or nautical units.
time (UTC)temp
F
wind
direction
speed
MPH
gust
MPH
rain 1hr
in
rain 24hr
in
rain mn
in
humidity
%
barometer
mb
20260901063033 71 0.0 0.0 0.00 0.31 0.31 88 1011.7
20260901061531 71 0.0 0.0 0.00 0.31 0.31 87 1011.6
20260901060030 72 0.0 0.0 0.00 0.31 0.31 85 1011.5
20260901054529 72 0.0 0.0 0.00 0.31 0.31 85 1011.4
20260901053049 72 0.0 0.0 0.00 0.31 0.31 86 1011.3
20260901051527 73 0.0 0.0 0.00 0.31 0.31 84 1011.3
20260901050027 74 0.0 0.0 0.00 0.31 0.31 82 1011.5
20260901044525 74 0.0 0.0 0.00 0.31 0.31 80 1011.7
20260901043023 75 0.0 0.0 0.00 0.31 0.31 78 1011.5
20260901041523 75 0.0 0.0 0.00 0.31 0.31 75 1011.5
20260901040024 75 0.0 0.0 0.00 0.31 0.31 75 1011.2
20260901034528 75 0.0 0.0 0.00 0.31 0.31 78 1011.1
20260901033027 75 0.0 0.0 0.00 0.31 0.31 80 1010.9
20260901031524 75 0.0 0.0 0.00 0.31 0.31 77 1011.0
20260901030021 75 0.0 0.0 0.00 0.31 0.31 77 1010.4
20260901024521 76 0.0 0.0 0.00 0.31 0.31 77 1010.2
20260901023034 76 0.0 0.0 0.00 0.31 0.31 74 1010.0
20260901021524 76 0.0 0.0 0.00 0.31 0.31 73 1009.9
20260901020020 77 0.0 0.0 0.00 0.31 0.31 73 1009.6
20260901014519 77 0.0 0.0 0.00 0.31 0.31 70 1009.2
20260901013019 78 0.0 0.0 0.00 0.31 0.31 69 1009.0
20260901011523 78 0.0 0.0 0.00 0.31 0.31 65 1008.9
20260901010018 79 0.0 0.0 0.00 0.31 0.31 63 1008.8
20260901004515 79 0.0 0.0 0.00 0.31 0.31 62 1008.7
20260901003016 80 0.0 0.0 0.00 0.31 0.31 60 1008.7
20260901001519 80 0.0 0.0 0.00 0.31 0.31 58 1008.6
20260901000015 81 0.0 0.0 0.00 0.31 0.31 58 1008.8
20260831234514 81 0.0 0.0 0.00 0.31 0.31 60 1008.7
20260831233014 81 0.0 0.0 0.00 0.31 0.31 59 1008.8
20260831231513 80 0.0 0.0 0.00 0.31 0.31 59 1008.9
20260831230013 79 0.0 0.0 0.00 0.31 0.31 63 1008.9
20260831224511 76 0.0 0.0 0.00 0.31 0.31 71 1009.4
20260831223011 75 0.0 0.0 0.00 0.31 0.31 73 1009.4
20260831221512 75 0.0 0.0 0.00 0.31 0.31 76 1009.6
20260831220010 74 0.0 0.0 0.00 0.31 0.31 79 1010.0
20260831214507 72 0.0 0.0 0.02 0.31 0.31 83 1010.4
20260831213005 70 0.0 0.0 0.03 0.31 0.31 87 1010.7
20260831211503 70 0.0 0.0 0.06 0.31 0.31 89 1010.5
20260831210002 70 0.0 0.0 0.10 0.31 0.31 90 1011.2
20260831204601 69 0.0 0.0 0.13 0.30 0.30 90 1012.2
20260831203107 69 0.0 0.0 0.21 0.28 0.28 90 1012.7
20260831201557 70 0.0 0.0 0.18 0.25 0.25 90 1013.1
20260831200057 69 0.0 0.0 0.14 0.21 0.21 89 1013.8
20260831194555 69 0.0 0.0 0.12 0.17 0.17 89 1014.1
20260831193053 69 0.0 0.0 0.06 0.07 0.07 87 1014.1
20260831191551 69 0.0 0.0 0.06 0.07 0.07 87 1014.0
20260831190104 69 0.0 0.0 0.06 0.07 0.07 86 1013.7
20260831184543 70 0.0 0.0 0.04 0.05 0.05 81 1013.0
20260831183040 72 0.0 0.0 0.00 0.01 0.01 78 1012.9
20260831181538 73 0.0 0.0 0.00 0.01 0.01 75 1012.9
20260831180045 74 0.0 0.0 0.00 0.01 0.01 72 1012.1
20260831174538 76 0.0 0.0 0.00 0.01 0.01 70 1012.4
20260831173033 77 0.0 0.0 0.00 0.01 0.01 69 1012.1
20260831171532 78 0.0 0.0 0.00 0.01 0.01 63 1012.1
20260831170030 78 0.0 0.0 0.00 0.01 0.01 67 1011.6
20260831164539 79 0.0 0.0 0.00 0.01 0.01 67 1011.3
20260831163025 82 0.0 0.0 0.00 0.01 0.01 60 1010.9
20260831161521 82 0.0 0.0 0.00 0.01 0.01 60 1010.5
20260831160020 81 0.0 0.0 0.00 0.01 0.01 63 1010.4
20260831154519 81 0.0 0.0 0.00 0.01 0.01 55 1010.1
20260831153018 80 0.0 0.0 0.00 0.01 0.01 57 1010.3
20260831151517 78 0.0 0.0 0.00 0.01 0.01 63 1010.5
20260831150016 76 0.0 0.0 0.00 0.01 0.01 74 1010.2
20260831144516 77 0.0 0.0 0.00 0.01 0.01 73 1010.0
20260831143019 76 0.0 0.0 0.00 0.01 0.01 73 1009.8
20260831141510 73 0.0 0.0 0.01 0.01 0.01 80 1009.7
20260831140009 72 0.0 0.0 0.01 0.01 0.01 83 1009.8
20260831134505 71 0.0 0.0 0.01 0.01 0.01 85 1010.0
20260831133003 71 0.0 0.0 0.01 0.01 0.01 85 1009.7
20260831131500 72 0.0 0.0 0.00 0.00 0.00 84 1009.8
20260831130001 71 0.0 0.0 0.00 0.00 0.00 84 1009.8
20260831124557 71 0.0 0.0 0.00 0.00 0.00 82 1010.1
20260831123055 71 0.0 0.0 0.00 0.00 0.00 81 1010.1
20260831121554 72 0.0 0.0 0.00 0.00 0.00 80 1010.1
20260831120051 73 0.0 0.0 0.00 0.00 0.00 76 1009.9
20260831114545 76 0.0 1.0 0.00 0.00 0.00 69 1009.6
20260831113041 79 0.0 0.0 0.00 0.00 0.00 62 1008.6
20260831111550 81 0.0 0.0 0.00 0.00 0.00 54 1008.1
20260831110045 81 0.0 0.0 0.00 0.00 0.00 55 1007.8
20260831104548 81 0.0 0.0 0.00 0.00 0.00 53 1007.2
20260831103036 81 0.0 0.0 0.00 0.00 0.00 53 1007.0
20260831101534 80 0.0 0.0 0.00 0.00 0.00 53 1007.1
20260831100033 81 0.0 0.0 0.00 0.00 0.00 53 1007.0
20260831094531 80 0.0 0.0 0.00 0.00 0.00 54 1006.8
20260831093038 80 0.0 0.0 0.00 0.00 0.00 54 1006.9
20260831091528 80 0.0 0.0 0.00 0.00 0.00 53 1006.9
20260831090026 81 0.0 0.0 0.00 0.00 0.00 53 1006.9
20260831084523 82 0.0 0.0 0.00 0.00 0.00 51 1007.0
20260831083022 82 0.0 0.0 0.00 0.00 0.00 51 1007.1
20260831081520 82 0.0 0.0 0.00 0.00 0.00 51 1007.2
20260831080022 83 0.0 0.0 0.00 0.00 0.00 50 1007.2
20260831074518 83 0.0 0.0 0.00 0.00 0.00 50 1007.4
20260831073015 84 0.0 0.0 0.00 0.00 0.00 49 1007.3
20260831071526 85 0.0 0.0 0.00 0.00 0.00 48 1007.5
20260831070009 85 0.0 0.0 0.00 0.00 0.00 47 1007.6
20260831064509 86 0.0 0.0 0.00 0.00 0.00 46 1007.5